User: anonymous   Login
Location: Unspecified
(0.0000°N, 0.0000°E)
Time: 13:14:13
(UTC+00:00)
Language:

USA 284 - Orbit

View from above orbital plane
View from above orbital plane
View from above satellite
View from above satellite

Ground track
Ground track

The orbit data is extracted from the following two-line orbital elements,

1 43340U 18036B   18328.62681255 0.00000000  00000-0  00000-0 0    02
2 43340   0.4793  90.6326 0004010  28.8919 331.1546  0.99390794    00
Epoch (UTC): 24 November 2018 15:02:36
Eccentricity: 0.0004010
inclination: 0.4793°
perigee height: 36018 km
apogee height: 36052 km
right ascension of ascending node: 90.6326°
argument of perigee: 28.8919°
revolutions per day: 0.99390794
mean anomaly at epoch: 331.1546°
orbit number at epoch: 0

The dashed part of the orbit path shows where the satellite is in the earth's shadow,  

DLR